Regional Weather Roundup
Issued by NWS State College, PA

Home | Current Version | Previous Version | Text Only | Print | Product List | Glossary Off
Versions: 1 2 3 4 5 6 7 8 9 10 11 12 13 14 15 16 17 18 19 20 21 22 23 24 25 26 27 28 29 30 31 32 33 34 35 36 37 38 39 40 41 42 43 44 45 46 47 48 49 50

000
ASUS41 KCTP 261703
RWRCTP

REGIONAL WEATHER ROUNDUP
NATIONAL WEATHER SERVICE STATE COLLEGE PA
1200 PM EST SUN FEB 26 2017

Note: "fair" indicates few or no clouds below 12,000 feet with no
significant weather and/or obstructions to visibility.

* = STATION THAT DOES NOT REPORT PRECIPITATION /E.G. RAIN...SNOW...ETC/
    THUNDER OR FOG.

PAZ002>004-007>009-013>016-020>023-029>032-261800-
WESTERN PENNSYLVANIA

CITY           SKY/WX    TMP DP  RH WIND       PRES   REMARKS
ERIE           CLOUDY    29  18  63 SW14G22   30.13R
MEADVILLE      FLURRIES  25  17  72 W13       30.10R WCI  14
FRANKLIN*      CLOUDY    27  12  54 W9G18     30.11S
NEW CASTLE     CLOUDY    30  17  58 VRB6G17   30.15F
BEAVER COUNTY  CLOUDY    32  16  51 SW10G20   30.13F
BUTLER*        CLOUDY    30  16  55 W8        30.14S
PITTSBURGH INT FLURRIES  32  18  56 W13G20    30.13F
PITTSBURGH     CLOUDY    31  20  63 W12G21    30.13S
INDIANA*       CLOUDY    28  18  64 NW12G21   30.14S
LATROBE        FLURRIES  30  19  64 W14       30.15R
WASHINGTON CO* PTSUNNY   32  14  47 SW13      30.16F
$$

PAZ004>006-010>012-017>019-024>028-033>037-041-042-045-046-049>053-261800-
CENTRAL PENNSYLVANIA

CITY           SKY/WX    TMP DP  RH WIND       PRES   REMARKS
BRADFORD       CLOUDY    24  11  57 W13G18    30.02R WCI  12
DUBOIS         FLURRIES  26  15  63 W12       30.07R
CLEARFIELD       N/A    N/A N/A N/A MISG      30.09R
JOHNSTOWN      FLURRIES  25  19  78 W21G28    30.04S WCI  11
ALTOONA        CLOUDY    30  22  72 W13       30.10R
STATE COLLEGE  NOT AVBL
WILLIAMSPORT   CLOUDY    35  14  42 W15       30.08R
SELINSGROVE    CLOUDY    34  18  52 NW9       30.11R
FT INDIANTOWN  PTSUNNY   37  13  38 W12G18    30.10R
CAPITAL CITY   PTSUNNY   39  13  34 W15G22    30.11S
HARRISBURG     PTSUNNY   40  18  41 NW14G24   30.11S
YORK           PTSUNNY   37  19  48 W15G21    30.11S
$$

PAZ038>040-043-044-047-048-054-055-060>062-067>071-261800-
EASTERN PENNSYLVANIA

CITY           SKY/WX    TMP DP  RH WIND       PRES   REMARKS
SCRANTON       CLOUDY    34  15  46 NW15G22   30.02R
MOUNT POCONO   CLOUDY    27  14  58 NW12G21   29.95R
ALLENTOWN      CLOUDY    38  18  44 NW12      30.06R
QUAKERTOWN*    CLOUDY    37  18  44 W10G16    30.07S
READING        PTSUNNY   38  17  42 NW20      30.08S
LANCASTER      PTSUNNY   38  17  42 NW15G25   30.10S
COATESVILLE    MOSUNNY   36  14  41 W17       30.10R
POTTSTOWN      PTSUNNY   38  17  42 W13G24    30.09S
BLUE BELL      CLOUDY    36  19  51 W13G18    30.07S
DOYLESTOWN     CLOUDY    38  18  44 W13G23    30.05S
WILLOW GROVE   NOT AVBL
NORTH PHILA    MOSUNNY   41  18  39 W16G28    30.09S
PHILADELPHIA   MOSUNNY   39  15  37 NW16G28   30.10S
$$




USA.gov is the U.S. government's official web portal to all federal, state and local government web resources and services.